Location: Newcastle Observatory
(43.9158°N, 78.5831°W)
Time: 08:11:10
(UTC-04:00)

Amateur Radio Satellites - All Passes

Search period start: 23 August 2017 07:41
Search period end: 24 August 2017 07:41
Location: Newcastle Observatory, 43.9158°N, 78.5831°W

Satellite Date Start Highest point End Downlink Frequencies (MHz)
Time Altitude Azimuth
NUDT-PHONESAT 23 Aug 07:52:41 07:56:25 65° 285° (WNW) 08:00:08 437.300
LilacSat-2 23 Aug 07:55:46 07:59:26 41° 288° (WNW) 08:03:06 437.200
XW-2D 23 Aug 07:56:44 08:00:23 41° 288° (WNW) 08:04:00 145.860 - 145.880
CUTE-I 23 Aug 08:05:07 08:10:24 66° 288° (WNW) 08:15:39 437.470
XW-2B 23 Aug 08:08:01 08:11:29 32° 290° (WNW) 08:14:56 145.730 - 145.750
AAUSAT CUBESAT 2 23 Aug 08:08:56 08:10:37 12° 89° (E) 08:12:18 437.432
XW-2A 23 Aug 08:14:54 08:17:37 22° 95° (E) 08:20:20 145.665 - 145.685
BEESAT 2 23 Aug 08:17:45 08:18:18 10° 328° (NNW) 08:18:50 435.950
NO-84 23 Aug 08:18:11 08:21:08 53° 222° (SW) 08:24:17 435.350 FM
CUTE 1.7 + AOD 2 23 Aug 08:21:55 08:26:10 60° 100° (E) 08:30:25 437.475
XW-2C 23 Aug 08:27:44 08:30:35 20° 293° (WNW) 08:33:27 145.795 - 145.815
STRAND 1 23 Aug 08:33:57 08:38:38 36° 263° (W) 08:43:20 437.568
XW-2F 23 Aug 08:38:00 08:40:30 17° 295° (WNW) 08:43:00 145.980 - 146.000
PCSat 23 Aug 08:45:27 08:50:23 36° 249° (WSW) 08:55:18 145.827
UWE-3 23 Aug 08:47:00 08:50:55 34° 97° (E) 08:54:54 435.000/436.395/437.385
Oscar 11 23 Aug 08:48:00 08:50:02 13° 89° (E) 08:52:05 .
FO-29 23 Aug 08:48:41 08:55:25 39° 67° (ENE) 09:01:32 435.910
SO-50 23 Aug 08:56:36 09:00:18 24° 246° (WSW) 09:04:01 436.795
KAITUO 1B 23 Aug 08:59:29 09:01:05 12° 297° (WNW) 09:02:41 145.475/437.950
CUBEBUG 2 23 Aug 08:59:35 09:03:49 81° 103° (ESE) 09:08:09 437.445
SEEDS 23 Aug 09:04:43 09:08:59 74° 285° (WNW) 09:13:13 437.485
Tancredo 1 23 Aug 09:07:21 09:10:13 58° 143° (SE) 09:13:05 437.200
O/OREOS (USA 219) 23 Aug 09:14:05 09:18:05 34° 105° (ESE) 09:22:08 437.305
HO-68 23 Aug 09:14:53 09:21:59 68° 291° (WNW) 09:29:04 435.675
ZACube-1 23 Aug 09:20:41 09:24:49 44° 99° (E) 09:29:02 437.345
ISS 23 Aug 09:25:10 09:27:51 24° 137° (SE) 09:30:34 437.550
nSIGHT-1 23 Aug 09:29:53 09:32:43 27° 138° (SE) 09:35:34 .
UNISAT 6 23 Aug 09:36:13 09:40:00 31° 69° (ENE) 09:43:46 437.425
AO-73 23 Aug 09:40:11 09:44:28 64° 101° (E) 09:48:50 145.935
AAUSAT CUBESAT 2 23 Aug 09:42:20 09:46:28 61° 286° (WNW) 09:50:35 437.432
XW-2A 23 Aug 09:47:35 09:50:16 22° 291° (WNW) 09:52:56 145.665 - 145.685
CUTE-I 23 Aug 09:48:47 09:49:26 10° 306° (NW) 09:50:04 437.470
RS-15 23 Aug 09:58:26 10:08:04 29° 102° (ESE) 10:17:45 29.354- 29.394
CUTE 1.7 + AOD 2 23 Aug 09:59:11 10:01:31 14° 297° (WNW) 10:03:51 437.475
TIGRISAT 23 Aug 10:09:59 10:14:14 64° 74° (ENE) 10:18:28 435.000
Oscar 11 23 Aug 10:22:15 10:26:35 62° 286° (WNW) 10:30:52 .
UWE-3 23 Aug 10:23:50 10:27:12 23° 293° (WNW) 10:30:38 435.000/436.395/437.385
DELFI C3 23 Aug 10:23:53 10:27:30 32° 97° (E) 10:31:04 145.870
EO-88 23 Aug 10:26:09 10:28:54 20° 94° (E) 10:31:37 145.990 - 145.960
PRISM 23 Aug 10:28:10 10:32:19 79° 75° (ENE) 10:36:30 437.425
FO-29 23 Aug 10:33:15 10:40:21 44° 262° (W) 10:46:49 435.910
CUBEBUG 2 23 Aug 10:38:50 10:39:50 11° 299° (WNW) 10:40:52 437.445
Tancredo 1 23 Aug 10:43:01 10:45:33 26° 343° (NNW) 10:48:04 437.200
O/OREOS (USA 219) 23 Aug 10:53:45 10:57:32 26° 304° (WNW) 11:01:20 437.305
ZACube-1 23 Aug 10:57:47 11:00:49 19° 295° (WNW) 11:03:53 437.345
ISS 23 Aug 11:00:56 11:04:10 51° 334° (NNW) 11:07:23 437.550
HO-68 23 Aug 11:04:42 11:08:26 15° 311° (NW) 11:12:10 435.675
nSIGHT-1 23 Aug 11:05:49 11:08:59 45° 336° (NNW) 11:12:10 .
M-CUBED/EXP-1 PRIME 23 Aug 11:06:20 11:10:38 42° 65° (ENE) 11:15:02 437.505
NANOSAT C BR1 23 Aug 11:10:08 11:12:40 16° 63° (ENE) 11:15:13 145.865
Max Valier Satellite 23 Aug 11:10:54 11:14:38 87° 284° (WNW) 11:18:21 145.860
AIST 2D 23 Aug 11:11:54 11:15:04 34° 72° (ENE) 11:18:17 435.315
UNISAT 6 23 Aug 11:13:10 11:16:44 25° 265° (W) 11:20:17 437.425
POLYITAN 1 23 Aug 11:16:47 11:19:52 20° 65° (ENE) 11:22:58 437.675
AO-73 23 Aug 11:18:01 11:20:12 14° 298° (WNW) 11:22:26 145.935
EO-79 23 Aug 11:31:12 11:34:47 28° 68° (ENE) 11:38:24 145.935-145.965
QB50P2 23 Aug 11:31:22 11:35:04 31° 69° (ENE) 11:38:47 145.880/145.840
LO-87 23 Aug 11:47:04 11:49:56 23° 95° (E) 11:52:48 145.935 - 145.965
ESTCUBE 1 23 Aug 11:48:16 11:51:27 19° 92° (E) 11:54:38 437.505/2401.250
TIGRISAT 23 Aug 11:49:43 11:51:21 12° 271° (W) 11:52:59 435.000
BUGSAT 1 23 Aug 11:50:26 11:51:02 10° 60° (ENE) 11:51:38 437.445
DUCHIFAT 1 23 Aug 11:57:28 12:01:23 42° 71° (ENE) 12:05:20 145.980
DELFI C3 23 Aug 11:59:04 12:02:04 21° 294° (WNW) 12:05:02 145.870
EO-88 23 Aug 11:59:23 12:02:35 28° 290° (WNW) 12:05:46 145.990 - 145.960
RS-15 23 Aug 12:06:49 12:19:08 86° 305° (NW) 12:31:33 29.354- 29.394
Oscar 19 23 Aug 12:16:42 12:19:05 13° 57° (ENE) 12:21:29 437.125/150
Tancredo 1 23 Aug 12:19:18 12:21:22 17° 2° (N) 12:23:27 437.200
ISS 23 Aug 12:38:32 12:41:10 21° 353° (N) 12:43:47 437.550
M-CUBED/EXP-1 PRIME 23 Aug 12:41:29 12:45:08 23° 262° (W) 12:48:53 437.505
nSIGHT-1 23 Aug 12:43:21 12:45:55 21° 355° (N) 12:48:30 .
NANOSAT C BR1 23 Aug 12:43:54 12:47:59 51° 260° (W) 12:52:04 145.865
AO-85 23 Aug 12:45:20 12:48:25 19° 41° (NE) 12:51:38 145.980
AIST 2D 23 Aug 12:46:24 12:48:24 15° 268° (W) 12:50:26 435.315
POLYITAN 1 23 Aug 12:51:30 12:55:24 38° 262° (W) 12:59:20 437.675
BEESAT 3 23 Aug 12:54:27 12:57:58 28° 46° (NE) 13:01:24 437.485
SPROUT 23 Aug 13:05:26 13:09:10 29° 96° (E) 13:12:52 437.525
EO-79 23 Aug 13:06:58 13:10:31 26° 265° (W) 13:14:04 145.935-145.965
QB50P2 23 Aug 13:07:27 13:10:52 24° 265° (W) 13:14:18 145.880/145.840
BEESAT 2 23 Aug 13:14:58 13:17:53 19° 40° (NE) 13:20:47 435.950
VELOX 1 23 Aug 13:18:44 13:22:43 32° 97° (E) 13:26:39 145.980
LO-87 23 Aug 13:20:29 13:23:17 22° 292° (WNW) 13:26:04 145.935 - 145.965
BUGSAT 1 23 Aug 13:21:42 13:25:46 79° 255° (WSW) 13:29:50 437.445
ESTCUBE 1 23 Aug 13:24:08 13:28:29 46° 289° (WNW) 13:32:49 437.505/2401.250
DUCHIFAT 1 23 Aug 13:34:29 13:37:15 17° 268° (W) 13:40:02 145.980
50 SAT 23 Aug 13:40:45 13:43:07 18° 94° (E) 13:45:28 437.505
Gurwin Techsat 1B 23 Aug 13:48:48 13:53:58 56° 71° (ENE) 13:59:11 435.225
AO-7 23 Aug 13:52:13 13:58:21 23° 50° (NE) 14:04:28 .
Oscar 19 23 Aug 13:52:28 13:57:37 88° 80° (E) 14:02:50 437.125/150
Tancredo 1 23 Aug 13:54:25 13:57:07 34° 22° (NNE) 13:59:48 437.200
ISS 23 Aug 14:15:34 14:18:23 26° 14° (NNE) 14:21:11 437.550
UKube-1 23 Aug 14:20:03 14:23:43 27° 96° (E) 14:27:23 .
nSIGHT-1 23 Aug 14:20:10 14:23:01 27° 15° (NNE) 14:25:51 .
RS-15 23 Aug 14:22:26 14:33:34 37° 332° (NNW) 14:44:39 29.354- 29.394
AO-85 23 Aug 14:24:53 14:29:10 65° 239° (WSW) 14:33:45 145.980
BEESAT 3 23 Aug 14:31:59 14:35:31 31° 244° (WSW) 14:39:00 437.485
SPROUT 23 Aug 14:41:26 14:44:57 26° 293° (WNW) 14:48:29 437.525
DX 1 23 Aug 14:47:09 14:51:31 82° 102° (ESE) 14:55:52 434.975-435.025
BEESAT 2 23 Aug 14:51:59 14:55:59 59° 240° (WSW) 14:59:56 435.950
VELOX 1 23 Aug 14:55:22 14:59:02 26° 294° (WNW) 15:02:39 145.980
50 SAT 23 Aug 15:12:56 15:15:47 26° 291° (WNW) 15:18:36 437.505
MOZHAYETS 4 23 Aug 15:15:24 15:16:29 11° 88° (E) 15:17:35
ITAMSAT 1 23 Aug 15:18:34 15:23:27 43° 68° (ENE) 15:28:21 435.822/435.867
Tancredo 1 23 Aug 15:29:37 15:32:16 32° 220° (SW) 15:34:53 437.200
Gurwin Techsat 1B 23 Aug 15:30:24 15:34:16 20° 268° (W) 15:38:09 435.225
YUBILEINY 23 Aug 15:32:38 15:40:35 41° 86° (E) 15:48:31 435.215
Oscar 19 23 Aug 15:35:55 15:37:38 12° 272° (W) 15:39:21 437.125/150
AO-7 23 Aug 15:41:40 15:50:03 88° 70° (ENE) 15:58:29 .
ISS 23 Aug 15:51:53 15:55:10 86° 213° (SSW) 15:58:26 437.550
BEESAT 23 Aug 15:54:33 15:58:49 31° 96° (E) 16:03:03 436.000
UKube-1 23 Aug 15:55:58 15:59:42 29° 293° (WNW) 16:03:25 .
nSIGHT-1 23 Aug 15:56:24 15:59:39 74° 214° (SW) 16:02:53 .
DX 1 23 Aug 16:25:37 16:27:03 11° 301° (WNW) 16:28:29 434.975-435.025
ITUPSAT 1 23 Aug 16:30:35 16:35:22 70° 103° (ESE) 16:40:08 437.325
RS-15 23 Aug 16:40:47 16:50:52 28° 6° (N) 17:00:41 29.354- 29.394
MOZHAYETS 4 23 Aug 16:49:34 16:54:13 82° 283° (WNW) 16:58:50
DOVE 4 23 Aug 16:57:17 17:01:51 31° 68° (ENE) 17:06:19 437.250
ITAMSAT 1 23 Aug 16:58:49 17:03:04 25° 266° (W) 17:07:20 435.822/435.867
CUBESAT XI-V 23 Aug 17:17:24 17:21:54 42° 98° (E) 17:26:20 437.345
XW-2B 23 Aug 17:18:17 17:19:50 12° 63° (ENE) 17:21:23 145.730 - 145.750
YUBILEINY 23 Aug 17:28:50 17:37:13 48° 287° (WNW) 17:45:38 435.215
ISS 23 Aug 17:29:59 17:31:09 12° 229° (SW) 17:32:20 437.550
BEESAT 23 Aug 17:32:22 17:36:31 30° 294° (WNW) 17:40:39 436.000
XW-2C 23 Aug 17:36:11 17:38:55 19° 67° (ENE) 17:41:40 145.795 - 145.815
AO-7 23 Aug 17:37:58 17:43:48 20° 269° (W) 17:49:41 .
O/OREOS (USA 219) 23 Aug 17:44:44 17:46:29 12° 47° (NE) 17:48:15 437.305
XW-2F 23 Aug 17:45:28 17:48:28 23° 68° (ENE) 17:51:29 145.980 - 146.000
CUTE-I 23 Aug 17:49:08 17:53:50 33° 66° (ENE) 17:58:33 437.470
HO-68 23 Aug 17:59:08 18:04:26 23° 55° (NE) 18:09:44 435.675
KAITUO 1B 23 Aug 18:05:03 18:08:20 30° 70° (ENE) 18:11:39 145.475/437.950
ITUPSAT 1 23 Aug 18:09:54 18:12:37 15° 300° (WNW) 18:15:21 437.325
KKS-1 23 Aug 18:15:40 18:20:07 71° 103° (ESE) 18:24:30 437.445
MOZHAYETS 4 23 Aug 18:29:58 18:30:35 10° 302° (WNW) 18:31:11
NUDT-PHONESAT 23 Aug 18:32:41 18:36:19 64° 75° (ENE) 18:40:00 437.300
DOVE 4 23 Aug 18:34:37 18:39:25 36° 264° (W) 18:44:08 437.250
LilacSat-2 23 Aug 18:38:20 18:42:05 72° 257° (WSW) 18:45:55 437.200
XW-2D 23 Aug 18:38:37 18:42:22 74° 258° (WSW) 18:46:09 145.860 - 145.880
STARS 23 Aug 18:45:34 18:49:54 61° 101° (ESE) 18:54:12 437.465
XW-2B 23 Aug 18:49:51 18:53:32 55° 259° (W) 18:57:17 145.730 - 145.750
CUBESAT XI-V 23 Aug 18:55:19 18:59:00 23° 295° (WNW) 19:02:40 437.345
RS-15 23 Aug 18:55:35 19:07:20 49° 39° (NE) 19:18:27 29.354- 29.394
AAUSAT CUBESAT 2 23 Aug 19:01:31 19:02:26 11° 60° (ENE) 19:03:21 437.432
XW-2C 23 Aug 19:09:31 19:12:54 31° 264° (W) 19:16:19 145.795 - 145.815
CUTE 1.7 + AOD 2 23 Aug 19:15:30 19:19:34 49° 73° (ENE) 19:23:42 437.475
XW-2F 23 Aug 19:19:19 19:22:29 26° 265° (W) 19:25:42 145.980 - 146.000
O/OREOS (USA 219) 23 Aug 19:22:04 19:26:38 84° 67° (ENE) 19:31:13 437.305
CUTE-I 23 Aug 19:28:55 19:33:48 35° 263° (W) 19:38:43 437.470
KAITUO 1B 23 Aug 19:39:41 19:42:23 19° 267° (W) 19:45:06 145.475/437.950
HO-68 23 Aug 19:44:14 19:51:24 80° 254° (WSW) 19:58:36 435.675
Oscar 11 23 Aug 19:44:39 19:46:36 13° 61° (ENE) 19:48:32 .
UWE-3 23 Aug 19:45:26 19:49:07 31° 69° (ENE) 19:52:47 435.000/436.395/437.385
KKS-1 23 Aug 19:53:58 19:56:05 13° 300° (WNW) 19:58:12 437.445
SEEDS 23 Aug 19:57:06 20:01:18 88° 77° (ENE) 20:05:35 437.485
CUBEBUG 2 23 Aug 19:58:46 20:03:00 77° 75° (ENE) 20:07:10 437.445
ZACube-1 23 Aug 20:17:49 20:21:39 38° 71° (ENE) 20:25:31 437.345
XW-2A 23 Aug 20:19:09 20:22:24 51° 260° (W) 20:25:40 145.665 - 145.685
STARS 23 Aug 20:23:19 20:25:44 15° 299° (WNW) 20:28:10 437.465
AAUSAT CUBESAT 2 23 Aug 20:33:04 20:37:14 81° 260° (W) 20:41:27 437.432
AO-73 23 Aug 20:36:51 20:40:52 56° 74° (ENE) 20:44:56 145.935
STRAND 1 23 Aug 20:42:20 20:47:26 69° 102° (ESE) 20:52:30 437.568
CUTE 1.7 + AOD 2 23 Aug 20:53:07 20:55:41 16° 269° (W) 20:58:17 437.475
EO-88 23 Aug 21:06:42 21:07:57 11° 63° (ENE) 21:09:12 145.990 - 145.960
RS-15 23 Aug 21:08:34 21:20:18 63° 245° (WSW) 21:31:26 29.354- 29.394
DELFI C3 23 Aug 21:10:35 21:13:47 23° 68° (ENE) 21:17:00 145.870
Oscar 11 23 Aug 21:17:53 21:22:09 70° 259° (W) 21:26:29 .
UWE-3 23 Aug 21:22:19 21:25:37 22° 266° (W) 21:28:55 435.000/436.395/437.385
HO-68 23 Aug 21:36:37 21:40:12 14° 273° (W) 21:43:47 435.675
FO-29 23 Aug 21:42:28 21:46:39 22° 91° (E) 21:50:38 435.910
PCSat 23 Aug 21:45:56 21:50:08 24° 108° (ESE) 21:54:23 145.827
Max Valier Satellite 23 Aug 21:50:45 21:54:16 47° 73° (ENE) 21:57:48 145.860
ZACube-1 23 Aug 21:55:13 21:58:06 18° 268° (W) 22:01:00 437.345
TIGRISAT 23 Aug 22:01:46 22:03:22 12° 89° (E) 22:04:57 435.000
AO-73 23 Aug 22:15:38 22:17:29 13° 270° (W) 22:19:20 145.935
STRAND 1 23 Aug 22:22:50 22:26:03 17° 300° (WNW) 22:29:16 437.568
LO-87 23 Aug 22:25:32 22:27:14 13° 65° (ENE) 22:28:57 145.935 - 145.965
EO-88 23 Aug 22:37:34 22:41:08 55° 259° (W) 22:44:45 145.990 - 145.960
DELFI C3 23 Aug 22:44:54 22:48:25 29° 264° (W) 22:51:58 145.870
ESTCUBE 1 23 Aug 22:49:06 22:52:28 21° 64° (ENE) 22:55:51 437.505/2401.250
UNISAT 6 23 Aug 23:02:01 23:06:18 57° 101° (E) 23:10:39 437.425
SO-50 23 Aug 23:11:00 23:15:30 76° 123° (ESE) 23:20:01 436.795
RS-15 23 Aug 23:25:23 23:29:56 13° 268° (W) 23:34:26 29.354- 29.394
FO-29 23 Aug 23:26:50 23:32:08 47° 291° (WNW) 23:37:05 435.910
Max Valier Satellite 23 Aug 23:26:58 23:28:22 12° 270° (W) 23:29:47 145.860
PCSat 23 Aug 23:27:51 23:33:09 55° 306° (NW) 23:38:30 145.827
TIGRISAT 23 Aug 23:36:10 23:40:28 68° 286° (WNW) 23:44:50 435.000
PRISM 23 Aug 23:43:08 23:47:17 77° 284° (WNW) 23:51:21 437.425
LO-87 23 Aug 23:56:51 00:00:17 44° 261° (W) 00:03:45 145.935 - 145.965
SPROUT 24 Aug 00:00:00 00:03:35 27° 68° (ENE) 00:07:10 437.525
AIST 2D 24 Aug 00:08:15 00:11:33 35° 97° (E) 00:14:51 435.315
VELOX 1 24 Aug 00:17:00 00:21:01 34° 69° (ENE) 00:25:04 145.980
M-CUBED/EXP-1 PRIME 24 Aug 00:18:38 00:21:59 22° 98° (E) 00:25:08 437.505
ESTCUBE 1 24 Aug 00:24:41 00:28:59 43° 262° (W) 00:33:19 437.505/2401.250
NANOSAT C BR1 24 Aug 00:27:04 00:30:21 22° 94° (E) 00:33:37 145.865
POLYITAN 1 24 Aug 00:34:39 00:38:21 29° 96° (E) 00:42:03 437.675
UNISAT 6 24 Aug 00:40:02 00:42:35 15° 297° (WNW) 00:45:09 437.425
EO-79 24 Aug 00:49:17 00:53:17 42° 99° (E) 00:57:17 145.935-145.965
QB50P2 24 Aug 00:49:46 00:53:51 47° 99° (E) 00:57:55 145.880/145.840
SO-50 24 Aug 00:53:19 00:56:29 18° 322° (NW) 00:59:39 436.795
BUGSAT 1 24 Aug 01:03:34 01:05:22 13° 91° (E) 01:07:09 437.445
NO-84 24 Aug 01:12:50 01:15:45 78° 141° (SE) 01:18:36 435.350 FM
DUCHIFAT 1 24 Aug 01:15:04 01:19:14 65° 101° (E) 01:23:24 145.980
PCSat 24 Aug 01:15:19 01:17:48 13° 328° (NNW) 01:20:19 145.827
UKube-1 24 Aug 01:15:39 01:19:21 28° 67° (ENE) 01:23:03 .
SPROUT 24 Aug 01:35:44 01:39:25 28° 264° (W) 01:43:06 437.525
YUBILEINY 24 Aug 01:41:03 01:47:23 21° 61° (ENE) 01:53:40 435.215
AIST 2D 24 Aug 01:42:16 01:44:28 16° 294° (WNW) 01:46:40 435.315
DX 1 24 Aug 01:43:30 01:47:54 83° 74° (ENE) 01:52:18 434.975-435.025
50 SAT 24 Aug 01:44:09 01:47:32 62° 258° (WSW) 01:50:56 437.505
M-CUBED/EXP-1 PRIME 24 Aug 01:52:33 01:56:30 35° 297° (WNW) 02:00:10 437.505
VELOX 1 24 Aug 01:53:53 01:57:31 24° 265° (W) 02:01:10 145.980
NANOSAT C BR1 24 Aug 02:02:20 02:06:07 34° 291° (WNW) 02:09:55 145.865
Oscar 19 24 Aug 02:03:01 02:07:28 28° 95° (E) 02:11:53 437.125/150
ITUPSAT 1 24 Aug 02:04:05 02:06:05 13° 58° (ENE) 02:08:04 437.325
Gurwin Techsat 1B 24 Aug 02:04:26 02:08:13 19° 92° (E) 02:11:59 435.225
POLYITAN 1 24 Aug 02:10:32 02:14:03 26° 293° (WNW) 02:17:32 437.675
MOZHAYETS 4 24 Aug 02:18:15 02:20:26 13° 60° (ENE) 02:22:39
EO-79 24 Aug 02:25:48 02:28:45 19° 295° (WNW) 02:31:42 145.935-145.965
QB50P2 24 Aug 02:26:31 02:29:17 17° 296° (WNW) 02:32:02 145.880/145.840
BUGSAT 1 24 Aug 02:37:06 02:41:02 54° 287° (WNW) 02:44:59 437.445
NO-84 24 Aug 02:51:30 02:53:26 16° 339° (NNW) 02:55:22 435.350 FM
UKube-1 24 Aug 02:51:33 02:55:18 28° 264° (W) 02:59:03 .
DUCHIFAT 1 24 Aug 02:52:28 02:54:23 13° 298° (WNW) 02:56:18 145.980
BEESAT 24 Aug 03:02:02 03:06:30 43° 70° (ENE) 03:11:00 436.000
ITAMSAT 1 24 Aug 03:31:43 03:34:00 13° 89° (E) 03:36:18 435.822/435.867
YUBILEINY 24 Aug 03:36:41 03:45:26 88° 260° (W) 03:54:08 435.215
ITUPSAT 1 24 Aug 03:38:26 03:43:12 86° 256° (WSW) 03:47:59 437.325
Oscar 19 24 Aug 03:42:03 03:46:52 39° 292° (WNW) 03:51:40 437.125/150
AO-7 24 Aug 03:42:36 03:49:19 26° 93° (E) 03:55:57 .
Gurwin Techsat 1B 24 Aug 03:43:19 03:48:32 58° 289° (WNW) 03:53:43 435.225
MOZHAYETS 4 24 Aug 03:52:27 03:57:00 74° 258° (WSW) 04:01:34
CUBESAT XI-V 24 Aug 04:21:42 04:26:09 47° 71° (ENE) 04:30:40 437.345
BEESAT 3 24 Aug 04:22:26 04:25:52 28° 115° (ESE) 04:29:20 437.485
BEESAT 24 Aug 04:40:49 04:44:27 22° 267° (W) 04:48:06 436.000
AO-85 24 Aug 04:41:31 04:44:45 25° 115° (ESE) 04:47:58 145.980
BEESAT 2 24 Aug 04:45:29 04:47:59 16° 111° (ESE) 04:50:30 435.950
ITAMSAT 1 24 Aug 05:08:54 05:14:05 81° 288° (WNW) 05:19:16 435.822/435.867
KKS-1 24 Aug 05:14:36 05:19:04 77° 75° (ENE) 05:23:33 437.445
AO-7 24 Aug 05:34:28 05:42:46 72° 293° (WNW) 05:51:00 .
YUBILEINY 24 Aug 05:35:30 05:40:55 19° 284° (WNW) 05:46:19 435.215
STARS 24 Aug 05:43:03 05:47:24 64° 73° (ENE) 05:51:45 437.465
BEESAT 3 24 Aug 05:59:44 06:03:21 31° 313° (NW) 06:07:01 437.485
CUBESAT XI-V 24 Aug 06:00:26 06:03:46 19° 268° (W) 06:07:08 437.345
SO-50 24 Aug 06:01:19 06:04:24 18° 37° (NE) 06:07:30 436.795
CUTE-I 24 Aug 06:07:32 06:08:19 10° 87° (E) 06:09:05 437.470
NO-84 24 Aug 06:08:04 06:10:10 18° 23° (NNE) 06:12:20 435.350 FM
XW-2D 24 Aug 06:12:01 06:12:54 11° 89° (E) 06:13:46 145.860 - 145.880
LilacSat-2 24 Aug 06:12:06 06:13:21 11° 90° (E) 06:14:35 437.200
BEESAT 2 24 Aug 06:21:24 06:25:20 52° 309° (NW) 06:29:18 435.950
AO-85 24 Aug 06:21:28 06:25:00 32° 313° (NW) 06:28:34 145.980
XW-2B 24 Aug 06:22:09 06:24:11 14° 91° (E) 06:26:11 145.730 - 145.750
STRAND 1 24 Aug 06:23:01 06:26:04 16° 59° (ENE) 06:29:06 437.568
PCSat 24 Aug 06:31:14 06:35:58 29° 46° (NE) 06:40:40 145.827
DOVE 4 24 Aug 06:32:02 06:36:29 59° 100° (E) 06:40:41 437.250
XW-2C 24 Aug 06:40:33 06:43:39 23° 94° (E) 06:46:44 145.795 - 145.815
XW-2F 24 Aug 06:49:28 06:52:47 27° 96° (E) 06:56:04 145.980 - 146.000
ITAMSAT 1 24 Aug 06:50:43 06:52:44 12° 304° (NW) 06:54:43 435.822/435.867
KKS-1 24 Aug 06:55:03 06:56:09 11° 271° (W) 06:57:15 437.445
KAITUO 1B 24 Aug 07:08:10 07:11:42 35° 97° (E) 07:15:13 145.475/437.950
HO-68 24 Aug 07:11:51 07:16:33 18° 89° (E) 07:21:13 435.675
STARS 24 Aug 07:22:12 07:24:09 13° 270° (W) 07:26:07 437.465
AO-7 24 Aug 07:28:50 07:34:09 19° 314° (NW) 07:39:27 .
